Temperature
23 22 22 22 21 21 20 20 20 19 18 18 18 17 17 17 17 17 17 17 17 17 17 17 17 17 17 17 17 17 17 17 17 17 17 17 17 17 17 17 17 17 17
23 23 22 22 21 20 20 19 19 18 18 17 17 17 17 17 17 17 17 17 17 17 17 17 17 17 17 17 17 17 17 16 16 17 17 16 17 17 17 17 17 17 17
23 22 22 22 21 20 20 19 19 18 17 17 17 17 17 17 17 17 17 17 17 17 17 17 17 17 17 17 17 17 16 16 17 17 17 16 17 16 17 17 17 17 17
23 22 22 22 21 20 20 19 19 18 17 17 17 17 17 17 17 17 17 17 17 16 17 17 17 17 17 17 17 16 16 16 17 17 17 17 16 16 16 17 17 17 17
22 22 22 22 21 21 20 20 19 19 18 17 17 17 17 17 17 17 17 17 17 16 17 16 17 17 17 17 17 17 17 17 17 17 17 16 16 16 16 16 16 16 16
22 22 21 21 21 21 21 20 20 19 19 18 18 17 17 17 17 17 17 16 16 16 16 16 16 17 17 17 17 17 17 17 17 17 16 16 16 16 16 16 16 16 16
21 21 21 21 21 21 21 21 20 20 19 19 18 17 17 17 17 17 16 16 16 16 16 16 16 16 16 16 16 16 17 17 17 16 16 16 16 16 16 16 16 16 16
21 21 21 21 20 20 21 21 20 20 19 19 19 18 17 17 17 17 17 16 16 16 16 16 16 16 16 16 16 16 16 16 17 16 16 16 15 15 15 15 15 15 16
20 20 20 20 19 19 19 20 20 20 19 19 19 19 18 18 18 17 17 17 16 16 16 16 16 16 16 16 16 16 16 16 16 16 16 16 15 15 15 15 15 15 15
20 19 19 19 18 18 18 19 19 19 19 19 19 19 19 18 18 18 17 17 16 16 16 16 16 16 16 15 16 16 16 16 16 16 16 15 15 15 15 15 15 15 15
18 18 18 18 18 17 17 17 18 18 19 19 19 19 19 19 18 18 17 16 16 16 16 16 15 15 15 15 15 15 16 16 15 15 15 15 14 14 15 15 14 15 15
18 18 18 17 17 17 17 16 16 17 17 17 17 18 18 19 18 18 17 16 16 16 16 16 15 15 15 15 15 15 15 15 16 15 15 15 14 14 14 14 14 15 15
16 17 17 17 17 17 16 16 15 15 15 15 16 17 17 18 18 18 17 16 16 15 15 15 15 15 15 15 14 15 15 16 15 15 15 15 14 14 14 14 14 14 15
16 16 17 16 17 17 16 15 14 14 14 14 15 15 15 16 15 15 16 15 15 15 15 15 15 15 15 15 14 14 15 15 15 16 15 15 15 14 14 14 14 14 14
16 16 15 15 15 15 15 15 14 14 13 13 13 13 14 14 14 14 13 14 14 14 14 14 14 14 14 14 14 14 14 14 14 15 15 15 14 14 14 14 14 14 14
16 16 16 16 16 15 15 14 14 14 13 13 12 12 12 13 13 13 13 13 14 14 14 14 14 14 14 14 13 13 13 14 14 14 15 15 14 14 14 14 14 14 14
15 15 15 15 15 15 15 15 14 14 13 13 12 12 12 12 12 12 13 13 14 14 14 14 14 14 13 13 13 13 13 13 13 13 14 14 14 14 14 14 14 13 13
14 14 15 15 15 15 15 15 14 14 13 12 12 12 11 11 11 12 12 12 13 13 13 13 13 14 14 14 13 13 13 13 12 13 14 14 14 14 14 14 14 13 13
14 14 14 14 14 14 13 13 13 13 13 12 12 11 11 11 11 11 12 12 12 13 13 13 13 13 13 13 13 13 13 13 12 13 13 13 14 13 13 13 13 13 13
14 14 14 13 13 13 12 12 12 12 12 12 11 11 11 11 11 11 11 12 12 12 12 12 12 12 12 12 12 12 12 12 12 12 12 12 13 13 13 13 12 12 12
14 14 13 13 12 12 12 11 11 11 12 11 11 11 11 11 11 11 11 11 11 11 11 11 11 11 11 12 11 11 12 12 12 12 11 11 12 12 12 12 12 12 11
14 13 13 13 12 11 11 11 11 11 11 11 11 11 11 11 11 11 11 11 11 11 11 11 11 11 11 11 10 10 10 11 12 12 12 12 11 11 11 11 12 12 12
13 13 12 12 11 10 10 10 10 10 11 11 11 11 11 11 11 10 10 10 10 11 11 11 11 10 10 10 10 10 10 10 11 11 11 11 11 11 11 11 11 12 12
13 12 11 11 11 10 10 10 10 9 9 10 10 10 10 10 10 10 10 10 10 10 10 10 10 9 9 9 9 9 9 9 9 9 10 10 11 11 11 11 11 10 11
12 11 11 11 10 10 10 9 9 9 9 9 9 9 9 9 9 9 9 9 9 9 9 9 9 9 9 8 8 8 9 9 8 8 8 8 9 9 9 9 10 10 10
12 11 10 10 10 10 9 9 9 9 9 9 9 9 9 9 9 9 9 9 9 9 9 9 9 9 8 8 8 8 8 8 7 7 8 8 9 9 8 8 8 9 9
Wind_Speed
5 10 19 18 17 17 16 15 12 10 9 8 7 7 7 7 7 8 8 8 7 6 5 6 6 5 6 6 7 8 8 9 7 5 4 4 6 6 5 3 2 4 7
7 12 17 17 16 15 14 12 11 10 9 8 7 6 7 7 7 7 8 9 9 8 7 7 7 6 5 5 5 6 8 9 6 4 2 1 4 4 3 3 3 2 4
8 10 13 15 15 14 13 12 11 9 9 9 6 5 6 7 7 7 8 9 10 10 10 8 8 8 7 6 4 5 8 8 6 4 1 2 2 3 2 3 3 3 2
8 11 13 15 15 14 14 13 12 9 9 8 7 5 5 5 7 7 8 9 10 11 11 10 9 9 8 7 6 6 6 6 5 3 3 5 5 5 4 4 4 4 3
8 11 15 18 17 17 16 15 13 11 10 9 8 7 5 5 6 7 8 9 10 11 11 12 11 10 8 7 7 6 5 3 2 2 4 6 6 5 6 5 4 4 4
8 9 14 19 19 18 18 17 16 14 12 11 10 8 7 6 5 6 8 8 9 11 12 13 12 11 10 8 7 6 5 3 1 2 2 6 7 6 5 5 4 4 3
8 8 12 19 19 19 18 18 17 15 14 12 11 10 8 7 5 4 5 8 9 11 13 13 12 11 10 9 7 6 4 2 2 3 4 5 7 7 6 6 5 3 1
8 7 11 17 18 18 18 17 16 16 15 14 13 11 9 8 7 6 5 8 10 12 13 15 13 12 11 9 7 5 3 3 1 2 4 6 8 8 8 7 7 5 4
4 4 5 10 14 16 16 16 15 15 15 14 13 12 11 9 8 7 5 8 11 12 14 15 14 14 12 10 9 6 4 3 2 2 3 5 7 8 8 10 9 7 5
9 4 1 2 6 10 12 13 13 13 13 12 11 10 8 7 6 5 6 7 10 11 13 15 15 15 14 12 10 7 5 4 3 3 3 7 7 6 8 9 9 8 6
9 7 4 4 5 6 8 10 11 11 11 11 9 9 8 6 6 7 9 10 10 12 13 14 16 16 14 12 11 9 7 6 5 4 4 7 8 7 8 10 11 10 8
8 8 8 4 5 5 5 6 8 9 9 9 8 8 8 8 9 10 11 13 13 12 12 14 15 15 12 9 9 9 7 7 6 5 7 10 9 7 8 12 14 12 10
5 7 8 8 3 5 5 3 4 6 6 7 8 9 9 8 8 8 8 9 9 9 8 9 9 10 9 8 6 7 8 7 7 6 8 11 11 8 8 11 15 15 12
6 7 8 8 7 3 3 2 2 2 3 3 7 9 5 4 4 4 2 4 5 5 4 5 4 6 8 10 8 6 7 6 7 7 9 11 11 10 10 12 15 16 15
5 6 6 7 8 7 6 3 2 3 4 4 5 6 5 3 4 4 5 3 4 6 4 5 5 6 7 7 7 6 7 7 8 8 9 12 12 11 12 13 16 18 17
4 5 6 7 7 7 6 4 2 1 2 3 3 4 4 3 3 3 4 4 5 5 6 6 6 6 6 6 7 8 8 7 9 9 10 12 13 13 13 15 17 18 19
3 5 7 6 6 6 5 4 4 3 1 1 3 4 4 3 3 3 3 3 3 5 5 4 6 5 5 6 8 8 8 7 7 8 10 11 12 14 14 15 18 19 19
4 5 6 6 7 6 5 4 3 3 2 1 1 2 3 2 3 3 2 4 2 1 3 4 4 5 7 7 7 7 7 7 9 8 9 10 11 11 13 15 15 18 21
5 4 6 7 7 6 5 4 3 4 3 2 1 1 1 1 3 2 2 3 2 2 2 3 4 5 7 9 9 7 7 7 8 8 8 8 10 11 12 14 15 14 16
6 6 6 7 7 6 5 4 3 4 4 3 3 3 3 2 2 2 2 3 2 2 3 3 5 5 6 8 8 8 8 8 7 7 8 7 8 11 13 13 13 12 15
7 7 6 6 7 5 3 3 3 4 3 3 4 5 5 4 4 3 3 4 3 1 2 2 2 4 4 3 5 7 8 8 10 10 8 8 10 10 11 12 13 11 13
5 4 5 6 6 4 2 1 1 2 2 2 3 4 4 5 5 5 4 4 3 2 3 2 2 3 3 4 5 4 6 7 10 10 11 12 10 7 8 9 11 11 12
5 2 3 4 5 5 5 3 3 3 3 4 4 4 5 4 4 3 5 5 5 3 3 3 2 3 4 3 7 6 4 5 3 5 10 12 11 10 9 8 8 10 12
5 4 1 2 4 4 6 5 4 2 2 3 3 5 6 5 4 4 5 4 2 1 2 3 4 3 4 4 3 6 9 7 5 5 3 6 10 11 10 8 9 9 12
7 6 4 1 1 2 4 4 3 2 2 3 3 5 6 6 5 4 4 3 3 1 1 1 2 3 2 3 4 4 4 4 7 5 3 2 5 7 8 9 10 9 10
6 5 4 3 4 3 2 3 3 4 5 4 5 5 5 5 5 5 3 1 2 3 3 3 3 3 4 4 5 5 3 3 5 6 9 10 8 4 4 7 9 9 8
Wind_Direction
207 187 181 185 186 183 181 180 185 186 179 174 172 177 182 181 184 187 189 193 191 186 168 153 146 141 142 154 154 146 133 123 107 96 82 86 94 93 93 97 140 183 181
165 175 180 186 187 186 184 184 185 181 180 174 172 175 185 185 185 191 196 199 198 191 178 163 158 150 145 150 155 162 147 127 125 118 100 78 91 86 81 76 92 137 187
146 166 177 185 187 187 185 184 176 182 186 175 171 172 180 185 186 195 199 203 200 192 186 180 175 152 150 154 147 151 151 149 145 125 157 209 149 120 106 98 103 113 148
155 164 171 182 185 187 187 186 182 185 184 175 177 174 171 180 190 199 204 205 202 198 193 186 180 158 156 159 161 159 163 161 148 122 102 172 173 153 136 121 116 106 96
165 167 173 178 183 187 189 190 190 191 190 185 188 190 191 190 191 203 213 208 206 205 199 187 175 168 166 164 162 161 164 168 158 149 137 146 160 156 148 139 110 89 86
179 173 175 178 182 187 191 194 193 194 193 190 191 191 188 188 194 209 213 213 209 206 200 188 180 178 174 170 165 165 171 187 200 269 209 171 165 163 163 164 125 103 90
190 182 178 181 184 189 194 197 196 197 198 196 193 193 195 196 204 222 228 211 204 204 199 193 191 187 182 178 175 169 175 201 213 274 268 203 180 174 186 174 144 134 155
176 171 176 185 187 191 196 200 200 200 203 205 202 200 203 205 210 221 236 220 207 206 201 197 198 197 187 185 185 176 187 213 214 278 245 200 197 196 204 184 160 159 174
77 135 170 185 189 192 197 203 205 205 206 209 211 211 214 217 222 221 238 227 212 216 213 208 205 203 191 187 183 184 204 225 234 278 219 200 212 216 215 187 165 162 161
44 51 352 266 209 191 192 202 207 209 208 211 216 223 231 233 232 229 252 242 222 222 220 214 210 205 196 188 188 193 209 231 237 257 229 205 206 219 214 182 170 168 168
30 22 8 241 227 216 197 196 200 207 208 207 210 217 227 229 231 248 261 256 243 231 221 213 209 202 192 184 189 202 208 223 228 235 239 231 212 219 221 193 192 188 185
18 2 0 338 238 214 205 197 195 197 198 201 207 214 219 226 234 243 255 261 253 236 217 208 205 196 182 177 190 208 216 229 228 223 234 228 217 227 236 210 198 196 198
15 9 1 353 333 215 198 181 187 188 195 208 219 223 227 235 243 250 256 262 247 228 209 203 202 188 174 182 200 218 225 234 237 236 232 213 205 217 241 225 198 199 207
23 13 9 8 18 56 130 150 173 173 191 209 221 225 222 239 255 254 241 245 212 201 201 193 182 179 179 194 204 213 226 232 227 224 224 216 206 208 229 240 223 213 214
27 14 15 28 40 55 73 81 131 200 212 216 220 220 205 210 254 271 261 238 216 193 189 196 190 186 191 204 212 210 218 225 231 226 212 214 213 211 223 239 240 223 213
27 9 6 28 40 54 56 51 40 179 207 208 211 216 196 190 219 251 273 244 226 204 197 191 193 194 202 210 223 221 223 221 222 218 206 210 216 219 227 237 236 217 209
42 10 9 13 27 35 36 34 28 21 45 230 220 222 243 262 259 259 270 270 252 218 202 194 199 197 209 215 225 226 230 225 216 218 207 206 211 219 223 234 235 218 216
63 26 12 12 16 13 9 6 357 353 2 336 271 238 255 310 314 278 268 261 261 208 207 220 216 219 220 222 227 229 232 225 223 217 210 209 209 215 222 225 235 227 220
85 43 18 13 12 4 355 335 331 328 307 289 309 304 297 324 10 7 328 286 296 292 251 240 229 222 238 240 237 234 233 226 229 221 215 216 212 212 219 226 229 236 232
70 43 18 5 5 358 356 352 341 316 305 310 295 274 274 272 305 327 335 341 351 314 286 272 255 235 236 245 244 244 240 237 238 245 238 229 220 216 216 219 228 239 243
63 35 19 8 356 355 1 5 346 325 325 321 308 298 297 306 319 318 302 288 289 279 279 279 265 263 261 247 253 260 256 247 244 239 236 236 231 223 215 214 217 222 237
93 46 18 12 4 4 350 314 273 298 325 340 348 354 336 305 293 295 305 309 316 316 308 287 216 223 230 213 244 272 273 257 238 236 233 233 233 227 219 217 214 208 212
109 79 22 8 15 22 18 6 2 358 351 356 353 348 343 336 328 307 289 284 299 334 342 345 312 284 277 233 219 239 254 261 301 245 235 233 232 226 224 218 216 213 206
154 168 141 19 17 20 30 36 25 354 313 308 308 317 325 341 351 349 341 329 303 328 339 333 334 311 299 294 274 248 254 237 250 280 296 271 250 240 232 226 219 217 213
162 180 192 204 341 7 20 27 14 325 275 283 297 318 321 322 333 343 352 349 317 272 251 277 305 303 276 279 280 285 289 261 246 256 265 323 313 279 266 248 232 220 213
169 197 207 214 243 256 302 324 326 294 289 300 309 317 314 307 307 312 324 321 259 262 263 254 248 248 245 244 264 277 271 283 277 261 251 235 231 218 261 277 264 237 210
Height
1499 1498 1497 1497 1497 1498 1499 1500 1501 1501 1502 1503 1504 1504 1505 1505 1506 1507 1508 1509 1510 1510 1510 1511 1512 1513 1513 1513 1514 1515 1516 1516 1517 1518 1518 1518 1518 1517 1517 1518 1518 1519 1519
1499 1498 1497 1497 1497 1497 1498 1499 1500 1500 1501 1502 1503 1503 1504 1504 1505 1506 1506 1507 1508 1509 1510 1510 1511 1512 1513 1514 1514 1515 1515 1516 1517 1517 1517 1518 1517 1518 1518 1518 1518 1518 1518
1498 1497 1497 1496 1496 1497 1497 1498 1498 1499 1500 1501 1502 1502 1503 1503 1504 1505 1505 1506 1507 1507 1508 1509 1510 1510 1511 1513 1514 1515 1516 1516 1516 1516 1516 1517 1517 1518 1518 1518 1518 1518 1517
1498 1497 1497 1496 1496 1496 1496 1497 1497 1498 1499 1500 1500 1501 1502 1502 1503 1503 1504 1505 1505 1506 1507 1508 1509 1509 1510 1512 1513 1515 1516 1515 1515 1515 1515 1516 1517 1517 1517 1517 1517 1517 1517
1497 1496 1496 1496 1495 1495 1495 1495 1496 1496 1497 1498 1499 1500 1500 1500 1501 1501 1502 1503 1504 1505 1506 1507 1508 1508 1509 1511 1512 1513 1515 1515 1514 1514 1513 1514 1515 1516 1516 1517 1516 1516 1516
1497 1496 1495 1495 1495 1495 1494 1494 1495 1495 1495 1496 1497 1498 1499 1499 1500 1500 1501 1502 1502 1504 1505 1506 1507 1508 1509 1510 1511 1512 1513 1513 1513 1513 1512 1512 1513 1514 1515 1516 1515 1515 1515
1496 1495 1494 1494 1494 1494 1493 1493 1493 1493 1494 1494 1495 1496 1497 1498 1498 1499 1499 1500 1500 1501 1503 1504 1506 1507 1508 1509 1510 1510 1511 1511 1511 1511 1511 1511 1511 1512 1513 1513 1513 1514 1514
1495 1494 1493 1493 1493 1492 1492 1491 1491 1491 1492 1493 1493 1494 1495 1496 1497 1497 1498 1498 1499 1500 1501 1502 1503 1505 1506 1507 1508 1509 1510 1510 1510 1510 1510 1510 1510 1511 1511 1511 1511 1512 1513
1492 1492 1492 1491 1491 1490 1490 1489 1489 1490 1490 1491 1492 1492 1493 1494 1494 1495 1495 1496 1497 1498 1498 1499 1500 1502 1503 1504 1506 1507 1508 1509 1508 1508 1508 1509 1509 1509 1509 1509 1509 1510 1511
1489 1489 1488 1488 1488 1488 1488 1487 1487 1488 1488 1489 1489 1490 1491 1491 1492 1492 1493 1494 1494 1495 1496 1497 1498 1499 1500 1502 1504 1505 1507 1507 1506 1506 1506 1506 1507 1507 1508 1508 1508 1508 1509
1487 1486 1485 1484 1485 1485 1485 1485 1485 1485 1486 1486 1486 1487 1487 1488 1489 1489 1490 1491 1492 1492 1493 1493 1495 1496 1497 1499 1501 1502 1503 1504 1504 1504 1504 1504 1505 1505 1506 1506 1506 1507 1508
1486 1484 1483 1481 1481 1482 1482 1483 1483 1482 1483 1483 1483 1483 1484 1485 1486 1486 1487 1488 1489 1489 1490 1491 1492 1493 1494 1496 1497 1499 1500 1501 1501 1501 1501 1502 1503 1503 1503 1504 1504 1505 1506
1485 1483 1480 1480 1478 1478 1479 1480 1480 1480 1480 1480 1480 1480 1480 1481 1482 1482 1483 1485 1486 1487 1488 1489 1490 1490 1491 1493 1494 1496 1497 1498 1498 1498 1498 1499 1500 1500 1501 1502 1502 1503 1504
1485 1482 1479 1477 1477 1476 1477 1477 1478 1478 1478 1478 1477 1478 1478 1478 1479 1479 1480 1482 1483 1484 1485 1486 1487 1488 1489 1490 1491 1492 1493 1495 1496 1496 1496 1496 1496 1497 1498 1499 1500 1500 1501
1484 1482 1479 1478 1476 1475 1475 1475 1475 1475 1475 1475 1475 1475 1476 1476 1477 1477 1477 1478 1480 1482 1483 1484 1484 1485 1486 1487 1487 1489 1490 1491 1493 1493 1493 1493 1493 1494 1494 1495 1497 1497 1498
1484 1483 1481 1479 1478 1476 1475 1474 1473 1472 1472 1472 1472 1473 1473 1473 1474 1474 1475 1475 1477 1479 1480 1481 1481 1482 1483 1483 1484 1484 1485 1486 1487 1488 1489 1489 1489 1490 1491 1491 1492 1494 1495
1484 1483 1481 1480 1478 1476 1475 1473 1471 1470 1470 1469 1470 1470 1470 1470 1470 1471 1471 1473 1474 1475 1476 1477 1478 1479 1480 1480 1480 1480 1481 1482 1483 1483 1484 1484 1485 1485 1486 1488 1489 1490 1492
1482 1482 1481 1479 1478 1476 1474 1472 1471 1469 1468 1467 1467 1467 1467 1467 1467 1467 1467 1469 1471 1472 1472 1473 1474 1474 1475 1476 1476 1477 1478 1478 1479 1480 1480 1480 1481 1481 1482 1483 1484 1486 1487
1480 1480 1479 1477 1476 1474 1472 1470 1469 1469 1468 1466 1465 1464 1465 1465 1464 1464 1465 1466 1467 1468 1469 1470 1470 1471 1470 1471 1472 1472 1473 1473 1474 1475 1475 1476 1477 1477 1478 1479 1479 1481 1483
1479 1478 1477 1475 1473 1472 1470 1469 1468 1467 1467 1466 1464 1463 1462 1462 1462 1462 1462 1463 1464 1465 1466 1467 1467 1467 1466 1466 1466 1466 1466 1467 1469 1469 1469 1471 1471 1472 1473 1474 1475 1476 1478
1476 1477 1475 1473 1471 1469 1469 1468 1467 1467 1466 1464 1464 1463 1462 1462 1461 1460 1460 1461 1461 1461 1462 1461 1461 1461 1461 1462 1462 1460 1460 1460 1461 1462 1463 1464 1464 1465 1466 1467 1468 1470 1472
1472 1472 1472 1470 1468 1466 1466 1466 1466 1466 1465 1464 1463 1463 1462 1461 1459 1459 1459 1459 1459 1459 1458 1457 1457 1456 1456 1457 1457 1456 1454 1453 1451 1454 1455 1456 1457 1459 1460 1461 1461 1462 1466
1469 1469 1468 1466 1465 1464 1464 1463 1464 1464 1464 1463 1462 1461 1460 1459 1458 1457 1457 1457 1457 1457 1456 1455 1455 1453 1452 1452 1452 1452 1450 1446 1445 1445 1447 1449 1450 1451 1452 1454 1456 1457 1458
1468 1468 1468 1465 1465 1464 1462 1462 1461 1462 1462 1462 1461 1460 1459 1458 1456 1455 1455 1455 1455 1454 1454 1453 1453 1452 1451 1450 1449 1447 1447 1444 1443 1439 1440 1442 1442 1443 1444 1447 1449 1451 1453
1465 1466 1465 1464 1464 1462 1461 1461 1461 1461 1460 1459 1459 1458 1458 1457 1455 1453 1452 1452 1452 1452 1451 1450 1450 1450 1449 1447 1446 1444 1441 1439 1439 1439 1435 1437 1439 1439 1440 1442 1442 1443 1446
1462 1463 1462 1461 1462 1460 1459 1459 1459 1459 1458 1457 1455 1455 1455 1454 1453 1451 1449 1448 1448 1448 1447 1447 1447 1447 1445 1444 1442 1440 1439 1437 1437 1435 1432 1429 1430 1432 1437 1437 1435 1436 1438